Tracking 17780 objects as of 27-July-2016
HD Live streaming from Space Station
objects crossing your sky now

SL-16 R/B

Track SL-16 R/B now!
10-day predictions
SL-16 R/B is classified as:


NORAD ID: 22285
Int'l Code: 1992-093B
Perigee: 849.5 km
Apogee: 849.5 km
Inclination: 71.0 °
Period: 101.8 minutes
Semi major axis: 7220 km
RCS: 8.7386 m2 (large)
Launch date: December 25, 1992
Source: Commonwealth of Independent States (former USSR) (CIS)
Launch site: TYURATAM MISSILE AND SPACE COMPLEX (TTMTR)

Note: This is a ROCKET BODY
Your satellite tracking list
Your tracking list is empty





NASA's NSSDC Master Catalog

Two Line Element Set (TLE):
1 22285U 92093B   16209.33324452 -.00000277  00000-0 -11867-3 0  9990
2 22285  71.0211 173.7373 0006674 266.1162  93.9198 14.14998158216582
Source of the keplerian elements: AFSPC

N2YO: 1143